Starlink 5498

operational
NORAD ID: 55633 Int'l Des: 2023-021 Owner: SPXS Country: US Constellation: starlink
LEOCIRCULAR

关于 Starlink 5498

正在加载描述...

实时位置

正在加载3D地球...

即将过境

高度历史

Altitude vs Time

uPlot chart will show altitude changes over time

两行轨道根数

1 55633U 23021F 25257.47702568 .00000092 00000-0 15524-4 0 9992
2 55633 69.9984 288.7337 0003410 270.1562 89.9207 14.98328131141908
Epoch: Sep 14, 2025 • Age: 26 hours

当前状态

高度 583.8 km
速度 7.57 km/s
星下点 59.77°N, 128.95°E
发射日期 Feb 17, 2023
运行时间 2.5 years
类型 internet

技术详情

分类 Payload
质量 305.00 kg
干质量 290.00 kg
总质量 305.00 kg
长度 0.20 m
直径 2.80 m
跨度 9.00 m
形状 Box + pan
制造商 SPXS
平台类型 Starlink
阶段状态 In Orbit
所有者/国家 SPXS/US

大型星座

Loading constellations...